Starlink 32386

operational
NORAD ID: 61213 Int'l Des: 2024-171 Owner: SPXS Country: US Constellation: starlink
LEOCIRCULAR

关于 Starlink 32386

正在加载描述...

实时位置

正在加载3D地球...

即将过境

高度历史

Altitude vs Time

uPlot chart will show altitude changes over time

两行轨道根数

1 61213U 24171P 25351.26419314 .00000197 00000-0 18784-4 0 9993
2 61213 53.1623 344.9557 0001392 76.4668 283.6488 15.30195868 69756
Epoch: Dec 17, 2025 • Age: 20 hours

当前状态

高度 475.1 km
速度 7.63 km/s
星下点 19.87°N, 132.78°W
发射日期 Sep 20, 2024
运行时间 1.2 years
类型 internet

技术详情

分类 Payload
质量 730.00 kg
干质量 700.00 kg
总质量 730.00 kg
长度 0.30 m
直径 4.10 m
跨度 29.00 m
形状 Box + pan
制造商 SPXS
平台类型 Starlink V2M
阶段状态 In Orbit
所有者/国家 SPXS/US

大型星座

Loading constellations...